Location: Neuvy Saint Sepulchre
(46.5953°N, 1.8122°E)
Time: 09:06:05
(UTC+01:00)

ISS - Pass Details

Date: 22 November 2019
Orbit: 411 x 421 km, 51.6° (Epoch: 11 December)

Event Time Altitude Azimuth Distance (km) Brightness Sun altitude
Rises 18:22:55 0° 194° (SSW) 2,342 0.5 -11.9°
Reaches altitude 10° 18:25:43 10° 168° (SSE) 1,487 -0.9 -12.3°
Maximum altitude 18:27:33 14° 134° (SE) 1,268 -1.6 -12.6°
Enters shadow 18:28:16 13° 120° (ESE) 1,305 -1.7 -12.8°
